STARLINK-34116

Satellite information

Favourite Embed

Satellite Type and Status

PAYLOADIN ORBIT

Key statistics

Satellite STARLINK-34116 at a glance.

Uptime

217

Days in orbit

Revolutions

≈ 15.3

Per day

Orbit

LEO

Low Earth Orbit

Inclination

43.0

Latest

Satellite identification and parameters

Extended collection of information and parameters for STARLINK-34116.

Object identification

Identified? True

Debris? False

Object name: STARLINK-34116

International designator: 2025-095A

Object number (NORAD): 63890

Object ID (CCSDS): 63890

Country: UNITED STATES OF AMERICA (US)

Current information (Y/N): Y

RCS size: LARGE

Orbital parameters

Period: 94.267 minutes

Inclination: 43.0002 deg

SMA: 6861.214 km

Apoapsis: 483.181 km

Periapsis: 482.976 km

RAAN: 310.5523 deg

Eccentricy: 0.00001488

Argument of periapsis: 110.1026 deg

Mean anomaly: 249.9842 deg

Mean motion: 15.27570815 rev/day

Mean motion (dot): 0.00026863 rev/day2

B* drag term: 0.00098241241 1/REarth

Two-line elements (TLE)

Creation date: Dec. 12, 2025, 10:14 a.m.

Reference frame: TEME

Reference center: EARTH

Epoch: Dec. 12, 2025, 4:30 a.m. UTC

TLE line 0: 0 STARLINK-34116

TLE line 1: 1 63890U 25095A 25346.18781097 .00026863 00000-0 98241-3 0 9990

TLE line 2: 2 63890 43.0002 310.5523 0000149 110.1026 249.9842 15.27570815 34401

Live tracking on map

Real-time ground track for satellite STARLINK-34116.

In-orbit conjunctions

There are no conjunctions computed for STARLINK-34116, at the moment. Check back to stay up to date, as we update our databases every day.

Go to all conjunctions

Associated space launch

A batch of 28 satellites for the Starlink mega-constellation - SpaceX's project for space-based Internet communication system.

STARLINK-34116 was lifted into orbit during the mission ‘Falcon 9 Block 5 | Starlink Group 6-91’, on board a Falcon 9 space rocket.

The launch took place on May 10, 2025, 6:28 a.m. from Space Launch Complex 40.

For more information about the launch, click the button.

Launch to space Falcon 9 Block 5 | Starlink Group 6-91
Falcon 9 Block 5 | Starlink Group 6-91

Agency: SpaceX

Status: Launch Successful

Launch date: May 10, 2025, 6:28 a.m. UTC

Rocket: Falcon 9

Launch pad: Space Launch Complex 40

Location: Cape Canaveral SFS, FL, USA

...

Latest news about this satellite

News about space launch
Live coverage: SpaceX to launch 28 Starlink satellites on Falcon 9 rocket from Cape Canaveral

The Starlink 6-91 mission includes the 900th Starlink V2 Mini satellite launched in 2025. Liftoff from pad 40 at Cape Canaveral Space Force Station is targeted for Saturday, May 10 at 2:28 am EDT (0628 UTC).

News about space launch
Launch Roundup: SpaceX to launch 250th mission from SLC-40

SpaceX is on course to launch its 250th mission from SLC-40 in Florida this week.… The post Launch Roundup: SpaceX to launch 250th mission from SLC-40 appeared first on NASASpaceFlight.com.


Newsletter sign-up

Weekly statistics, charts and insights to help you stay on top of the space industry.